Regional Weather Roundup
Issued by NWS Pendleton, OR

Home | Current Version | Previous Version | Text Only | Print | Product List | Glossary On
Versions: 1 2 3 4 5 6 7 8 9 10 11 12 13 14 15 16 17 18 19 20 21 22 23 24 25 26 27 28 29 30 31 32 33 34 35 36 37 38 39 40 41 42 43 44 45 46 47 48 49 50
599
ASUS46 KPDT 051325
RWRPDT
PENDLETON REGIONAL WEATHER ROUNDUP
NATIONAL WEATHER SERVICE PENDLETON OREGON
500 AM PST MON DEC 5 2016

NOTE: FAIR INDICATES FEW OR NO CLOUDS BELOW 12,000 FEET WITH NO
SIGNIFICANT WEATHER AND/OR OBSTRUCTIONS TO VISIBILITY.

# INDICATES UNOFFICIAL STATION AND DATA

WAZ520-051410-
EAST SLOPES OF WASHINGTON CASCADES

CITY            SKY/WX      TMP DP  RH  WIND    PRES   REMARKS
#CLE ELUM HS    N/A         29  24  81  CALM    30.00S
#CLE ELUM LAKE  N/A         27  23  85  CALM    30.09F
#GLENWOOD       N/A         26  22  85  CALM    30.14R
#MANASTASH CYN  N/A         21  14  74  CALM    29.99F
#NELSON 3SW     N/A         24  21  88  CALM    30.32F
#NILE           N/A         19  17  92  CALM    29.38F
#RONALD 2NW     N/A         27  N/A N/A W1      29.97F
#TEANAWAY 4NE   N/A         25  23  92  CALM    N/A
#TROUT LAKE 1NE N/A         26  24  92  NW1     30.16S
$$

WAZ521-051410-
SIMCOE HIGHLANDS

CITY            SKY/WX      TMP DP  RH  WIND    PRES   REMARKS
#CENTERVILLE 1SWN/A         30  25  81  W3      30.14R
#GOLDENDALE 1NE N/A         28  20  71  CALM    N/A
#GOLDENDALE 4W  N/A         31  10  41  CALM    30.11S
#GOODNOE HILLS  N/A         32  25  75  W3      30.01S
#LYLE 6NE       N/A         33  28  82  W6      30.12S
$$

WAZ026-051410-
KITTITAS VALLEY

CITY            SKY/WX      TMP DP  RH  WIND    PRES   REMARKS
ELLENSBURG AP   MOCLDY      26  20  78  CALM    30.05S
#ELLENSBURG CWU N/A         26  20  78  CALM    30.07R
#ELLENSBURG 3NE N/A         27  22  81  CALM    30.06S
#KITTITAS 4N    N/A         26  20  78  E1      30.08S
#KITTITAS 3S    N/A         19  16  88  CALM    30.13R
#THORP 6N       N/A         27  23  85  S2      30.14S
$$

WAZ027-051410-
YAKIMA VALLEY

CITY            SKY/WX      TMP DP  RH  WIND    PRES   REMARKS
SUNNYSIDE AP    CLEAR       19  16  88  N3      30.12R
YAKIMA AIRPORT  CLEAR       20  15  81  W3      30.11R
YAKIMA-VAGABOND CLEAR       20  15  81  W3      30.07S
#GRANDVIEW      N/A         23  16  74  CALM    30.16S
#MABTON         N/A         22  18  84  CALM    30.11S
#NACHES 2SW     N/A         25  20  81  CALM    30.06S
#TERRACE HTS    N/A         23  17  77  CALM    30.11R
#TOPPENISH      N/A         23  18  81  CALM    30.05S
#WEST VALLEY    N/A         23  17  77  CALM    30.12S
#W YAKIMA       N/A         27  19  71  NW1     30.14S
#WHITE SWAN 5E  N/A         20  17  88  CALM    30.14S
#WILEY CITY 3W  N/A         23  14  68  W1      30.05S
$$

WAZ028-051410-
LOWER COLUMBIA BASIN...WASHINGTON

CITY            SKY/WX      TMP DP  RH  WIND    PRES   REMARKS
HANFORD         CLEAR       26  16  65  S6      30.12R
PASCO           CLEAR       23  20  88  CALM    30.15S
PROSSER AWOS    N/A         21  19  92  CALM    30.16S
RICHLAND AWOS   CLEAR       27  24  88  CALM    30.14S
#BENTON CITY    N/A         25  19  78  CALM    30.06R
#CONNELL 5N     N/A         20  16  84  NE1     30.15S
#CONNELL 5NW    N/A         24  20  84  SE1     30.10S
#ELTOPIA 6NW    N/A         27  24  88  CALM    29.08S
#KAHLOTUS       N/A         27  24  88  SW5     30.15R
#KENNEWICK 3S   N/A         32  25  75  N2      30.14S
#PATERSON       N/A         29  24  81  CALM    30.14S
#SAGEMOOR 2W    N/A         27  22  81  CALM    29.99S
#TOUCHET 2S     N/A         35  24  64  SW15    30.13S WCI 25
#WEST PASCO     N/A         28  20  71  CALM    30.16R
$$

WAZ029-051410-
FOOTHILLS OF THE BLUES...WASHINGTON

CITY            SKY/WX      TMP DP  RH  WIND    PRES   REMARKS
WALLA WALLA AP  PTCLDY      30  22  72  S7      30.12S
#CLYDE 6NW      N/A         25  21  84  CALM    30.15S
#DAYTON SCHOOL  N/A         29  18  63  S5      30.12R
#LOWDEN 2SE     N/A         27  22  81  CALM    30.12S
#PLEASANT VIEW 1N/A         25  22  88  S6      30.19R
#PRESCOTT       N/A         26  23  88  CALM    30.16R
#WHITMAN COLLEGEN/A         33  24  69  SE3     30.21S
#WAITSBURG 5S   N/A         29  24  81  S6      30.26R
#WAITSBURG 8N   N/A         27  N/A N/A S3      30.17R
#WALLA WALLA U  N/A         31  24  75  CALM    30.17S
#WHITMAN MISSIONN/A         31  24  75  CALM    30.18S
$$

WAZ030-051410-
BLUE MOUNTAINS...WASHINGTON

CITY            SKY/WX      TMP DP  RH  WIND    PRES   REMARKS
#DIXIE 5SE      N/A         26  21  81  S12     29.97R WCI 15
$$

ORZ009-041-WAZ024-051410-
COLUMBIA RIVER GORGE

CITY            SKY/WX      TMP DP  RH  WIND    PRES   REMARKS
HOOD RIVER AP   PTCLDY      36  32  85  CALM    30.16F
THE DALLES AP   MOCLEAR     38  30  73  CALM    30.16R
#ARLINGTON AIRPON/A         33  27  78  SW3     30.17S
#ARLINGTON HS   N/A         36  26  67  CALM    30.08S
#CELILO DOT     N/A         39  26  59  SW3     N/A
#LYLE           N/A         40  33  76  NW10    30.17S
#MOSIER 1S      N/A         33  20  58  CALM    N/A
#MURDOCK        N/A         40  32  73  W7      30.12F
#RUFUS DOT      N/A         38  29  70  SW2     N/A
#SMITHVILLE     N/A         39  32  76  N8      30.11R

$$

ORZ510-051410-
NORTH CENTRAL OREGON

CITY            SKY/WX      TMP DP  RH  WIND    PRES   REMARKS
#ANTELOPE       N/A         19  16  88  NE2     30.06S
#CHENOWITH 1W   N/A         30  26  85  N5      N/A
#COW CYN RST AREN/A         24  N/A N/A S5      N/A
#DUFUR 9E       N/A         27  22  81  SE6     30.20S
#GRASS VALLEY 1SN/A         24  20  84  SE1     30.02R
#KENT DOT       N/A         25  16  68  N8      N/A
#MAUPIN SCHOOL  N/A         36  25  64  SW6     30.15F
#MORO SCHOOL    N/A         21  19  92  CALM    30.09S
#SHANIKO 5WSW   N/A         24  14  65  N8      N/A
#SHANIKO 4NW    N/A         23  18  81  SW3     30.03R
#WAPANITIA AIRPON/A         29  22  75  W3      30.17F
#WASCO DOT      N/A         29  25  85  S3      N/A
#WASCO 5NE      N/A         25  22  88  N3      30.16S
$$

ORZ511-051410-
CENTRAL OREGON

CITY            SKY/WX      TMP DP  RH  WIND    PRES   REMARKS
BEND AIRPORT    PTCLDY      25  18  74  CALM    30.09F
MADRAS AIRPORT  CLEAR       23  19  84  S8      30.13S
PRINEVILLE AP   PTCLDY      19  18  96  S5      30.11S
REDMOND AIRPORT PTCLDY      20  15  81  SE8     30.11S
#ASHWOOD SCHOOL N/A         26  20  78  CALM    30.06S
#BEND 1SW       N/A         23  20  88  S2      N/A
#BEND-AWBREY    N/A         24  21  88  S3      30.20S
#BEND-KIM LN    N/A         23  18  81  CALM    30.00F
#CULVER         N/A         25  19  78  S1      30.13S
#CULVER 8W      N/A         25  15  65  CALM    30.07F
#LAKE BILLY CHINN/A         30  N/A N/A SE8     30.19F
#MADRAS 4S      N/A         N/A N/A N/A N8      30.18R
#POWELL BUTTE 3EN/A         20  18  92  S1      N/A
#POWELL BUTTE   N/A         27  15  60  S3      30.04S
#PRINEVILLE 3N  N/A         18  15  88  E3      30.23S

$$


ORZ509-051410-
EAST SLOPES OF OREGON CASCADES

CITY            SKY/WX      TMP DP  RH  WIND    PRES   REMARKS
SISTERS AWOS    N/A         25  19  78  CALM    30.04F
#BLUE BOX PASS  N/A         22  N/A N/A W1      N/A
#CAMP SHERMAN   N/A         25  20  81  CALM    30.29F
#LA PINE DOT    N/A         15  12  88  SE2     N/A
#LA PINE 4NW    N/A         15  11  84  CALM    30.27S
#LAVA BUTTE DOT N/A         19  17  92  W1      N/A
#SISTERS AIRPOR N/A         25  22  88  CALM    30.17S
#SISTERS ODOT   N/A         24  N/A N/A CALM    N/A
#SISTERS 3N     N/A         23  16  74  CALM    30.08F
#SUNRIVER       N/A         20  17  88  CALM    30.24S
#SUTTLE LK DOT  N/A         18  18  100 W17G36  N/A    WCI  3
#TUMALO 3W      N/A         21  17  84  W1      30.08S
#WANOGA BUTTE D N/A         15  10  80  W8      N/A

$$

ORZ044-051410-
LOWER COLUMBIA BASIN...OREGON

CITY            SKY/WX      TMP DP  RH  WIND    PRES   REMARKS
HERMISTON       MOCLDY      31  23  72  SW7     30.13F
#BOARDMAN SCHOOLN/A         31  24  75  SW2     30.15S
#I-84 EX 198 DOTN/A         33  23  66  SW7     N/A
#UMATILLA       N/A         27  21  78  CALM    30.10S
$$

ORZ507-051410-
NORTHERN FOOTHILLS OF THE BLUES

CITY            SKY/WX      TMP DP  RH  WIND    PRES   REMARKS
PENDLETON AIRPT CLEAR       26  18  71  S10     30.12S
#ATHENA         N/A         29  22  75  CALM    30.20S
#CAYUSE         N/A         32  22  66  W1      30.16S
#HELIX SCHOOL   N/A         27  22  81  S5      30.17S
#HOLDMAN 5SE    N/A         29  25  85  CALM    30.10F
#HOLDMAN 6E     N/A         25  21  84  SE3     29.96F
#M-F GROVE ELEM N/A         32  20  61  CALM    30.10S
#M-FREEWATER 5SEN/A         33  23  66  CALM    30.11F
#PENDLETON DNTN N/A         26  16  65  CALM    30.16S
#PDT AQUATIC CTRN/A         27  18  68  CALM    30.13S
#PDT SUNRIDGE   N/A         25  19  78  CALM    30.15S
#PENDLETON 7NW  N/A         26  20  78  E6      31.38S
#PILOT ROCK 1S  N/A         29  16  58  S6      30.11F
#PILOT ROCK     N/A         28  20  71  W3      30.12S
#TUTUILLA       N/A         29  23  78  CALM    30.16S
#UMAPINE 2E     N/A         32  24  72  CALM    30.11S
#WESTON SCHOOL  N/A         30  19  63  SW5     30.02F

$$

ORZ508-051410-
SOUTHERN FOOTHILLS OF THE BLUES

CITY            SKY/WX      TMP DP  RH  WIND    PRES   REMARKS
LEXINGTON       CLEAR       28  21  75  E7      30.14F
#AJAX           N/A         28  14  55  E1      27.84S
#CONDON SCHOOL  N/A         24  20  84  SW7     30.02S
#CONDON 5W      N/A         24  18  77  S7      30.01S
#HEPPNER EOC    N/A         31  21  66  S6      30.11R
#HEPPNER 4NE    N/A         27  20  74  S2      30.17S
#LEXINGTON 2SE  N/A         29  21  72  S5      30.07F
#MIKKALO        N/A         27  18  68  CALM    30.21S
#OLEX 4N        N/A         30  24  78  SW2     30.13R
#RUGGS 5NE      N/A         24  18  77  S6      30.20S
#RUGGS 2SW      N/A         27  20  74  SW8     30.19S

$$

ORZ502-503-051410-
BLUE MOUNTAINS

CITY            SKY/WX      TMP DP  RH  WIND    PRES   REMARKS
#BATTLE MTN DOT N/A         17  14  88  S2      N/A
#GREENHORN 9SW  N/A         18  17  96  CALM    26.26R
#LADD CYN SMT   N/A         12   9  87  SE1     N/A
#LADD CREEK ODOTN/A         16   6  64  S3      N/A
#LONG CREEK HS  N/A         21  19  92  S6      30.06S
#N POWDER DOT   N/A          3   0  87  N2      N/A
#PIKES PEAK     N/A         24  20  84  SW7     27.99S
#TOLLGATE       N/A         18  17  96  CALM    29.82S
#TROY SCHOOL    N/A         26  22  85  W1      30.06R
#UKIAH          N/A         18  16  92  CALM    30.11S
#WESTON 4E      N/A         26  22  85  S6      30.14S
$$

ORZ505-051410-
JOHN DAY BASIN

CITY            SKY/WX      TMP DP  RH  WIND    PRES   REMARKS
JOHN DAY        CLEAR       22  17  81  N6      30.08S
#ANTELOPE 9ESE  N/A         30  21  69  CALM    N/A
#DAYVILLE SCHOOLN/A         22  16  77  CALM    30.10R
#MITCHELL       N/A         21  18  88  CALM    30.26S
#MITCHELL 8NW   N/A         25  18  74  SW1     30.16S
#MONUMENT HS    N/A         21  17  84  CALM    30.17R
#MT. VERNON 5SE N/A         19  15  84  CALM    30.01S
#SPRAY SCHOOL   N/A         21  N/A N/A CALM    N/A
$$

ORZ506-051410-
OCHOCO AND JOHN DAY HIGHLANDS

CITY            SKY/WX      TMP DP  RH  WIND    PRES   REMARKS
#BUCK CREEK DOT N/A         20  18  92  S5      N/A
#HORSE RIDGE DO N/A          3  -2  79  CALM    N/A
#KEYES SMT DOT  N/A         16  13  88  SW7     N/A
#PAULINA SCHOOL N/A         16  13  88  SW3     N/A
#PINE MTN OBS   N/A         15  13  92  CALM    N/A
#PRAIRIE CITY   N/A         18  11  74  CALM    30.26
#SENECA         N/A          8  N/A N/A CALM    N/A
#SENECA 9NW     N/A         10   8  91  CALM    30.23R
$$

ORZ049-051410-
GRANDE RONDE VALLEY

CITY            SKY/WX      TMP DP  RH  WIND    PRES   REMARKS
LA GRANDE       CLOUDY      25  12  57  CALM    30.09S
#COVE           N/A         26  22  85  CALM    30.11S
#COVE SCHOOL    N/A         27  22  81  CALM    30.09F
#COVE 6NW       N/A         25  19  78  CALM    30.21R
#ELGIN 3N       N/A         26  14  60  S7      30.05R
#ELGIN 1E       N/A         28  19  68  CALM    N/A
#IMBLER SCHOOL  N/A         26  18  71  SE3     30.05R
#ISLAND CITY 4N N/A         35  34  96  CALM    30.21F
#LADD CYN DOT   N/A         20  15  81  SE15    N/A    WCI  6
#UNION 1S       N/A         22  17  81  SE7     30.22R
$$

ORZ050-051410-
WALLOWA COUNTY

CITY            SKY/WX      TMP DP  RH  WIND    PRES   REMARKS
JOSEPH AIRPORT  PTCLDY       3   1  91  S6      30.03R
#IMNAHA SCHOOL  N/A         29  18  63  SW5     30.12R
#IMNAHA 10S     N/A         20  12  71  SW10    30.08R
#JOSEPH 3N      N/A          5  -3  69  NE1     30.05R
#JOSEPH 3W      N/A         11   5  76  CALM    29.84R
#LOSTINE        N/A         14  10  84  CALM    30.00R
#LOSTINE 3SE    N/A         12   8  84  S5      30.06R
#MT HOWARD 8000 N/A          6  -3  66  SW6     29.71F
#PROMISE 1S     N/A         21  17  84  NW1     30.31R
#WALLOWA SCHOOL N/A         27  17  65  CALM    30.05R



$$



USA.gov is the U.S. government's official web portal to all federal, state and local government web resources and services.